Regional Weather Roundup
Issued by NWS

Home | Current Version | Previous Version | Text Only | Print | Product List | Glossary Off
Versions: 1 2 3 4 5 6 7 8 9 10 11 12 13 14 15 16 17 18 19 20 21 22 23 24 25 26 27 28 29 30 31 32 33 34 35 36 37 38 39 40 41 42 43 44 45 46 47 48 49 50

000
ASUS43 KOAX 021902
RWRNE

WEATHER ROUNDUP FOR NEBRASKA
NATIONAL WEATHER SERVICE OMAHA NE
200 PM CDT THU JUL 02 2015

NOTES: SATELLITE DATA IS BEING USED TO AUGMENT CLOUD COVER ABOVE
       12000 FEET.
       "FAIR" INDICATES FEW OR NO CLOUDS BELOW 12,000 FEET WITH NO
       SIGNIFICANT WEATHER AND/OR OBSTRUCTIONS TO VISIBILITY.

  * THESE STATIONS DO NOT REPORT WEATHER SUCH AS RAIN...SNOW OR FOG.

NEZ001>004-019>022-054>056-022000-
NEBRASKA PANHANDLE

CITY           SKY/WX    TMP DP  RH WIND       PRES   REMARKS
SCOTTSBLUFF    MOSUNNY   83  55  38 N10       30.12S
ALLIANCE       MOSUNNY   78  59  51 N14G21    30.11F
CHADRON        MOSUNNY   81  60  48 NE10G17   30.08F
KIMBALL          N/A    N/A N/A N/A MISG        N/A
SIDNEY         MOSUNNY   80  61  52 NE13G21   30.15S
$$

NEZ057>060-069>072-079>082-022000-
SOUTHWEST NEBRASKA

CITY           SKY/WX    TMP DP  RH WIND       PRES   REMARKS
NORTH PLATTE   PTSUNNY   83  61  47 N14       30.02S
IMPERIAL       SUNNY     84  59  42 NW15G22   30.07S
LEXINGTON      SUNNY     83  62  47 N10       30.00
MCCOOK         SUNNY     85  58  39 NW13G21   30.01F
$$

NEZ005>010-023>029-035>040-094-022000-
NORTH CENTRAL NEBRASKA

CITY           SKY/WX    TMP DP  RH WIND       PRES   REMARKS
VALENTINE      PTSUNNY   79  59  50 N18G25    30.02F
AINSWORTH      SUNNY     80  58  47 NW17G23   30.01
BROKEN BOW     PTSUNNY   81  64  56 N12G21    29.99S
ORD            PTSUNNY   84  62  47 NW14G21   29.93F
$$

NEZ041-046>049-061>064-073>077-083>087-022000-
SOUTH CENTRAL NEBRASKA

CITY           SKY/WX    TMP DP  RH WIND       PRES   REMARKS
GRAND ISLAND   MOSUNNY   80  65  59 VRB3      29.95F
AURORA         MOSUNNY   80  64  57 N8        29.95
HASTINGS       MOSUNNY   82  64  54 NW8       29.96S
KEARNEY *      MOSUNNY   82  61  47 NW12      29.98S
$$

NEZ011>018-030>034-042>045-022000-
NORTHEAST NEBRASKA

CITY           SKY/WX    TMP DP  RH WIND       PRES   REMARKS
NORFOLK        CLOUDY    65  62  90 E8        29.97R
COLUMBUS *     CLOUDY    75  64  69 SE6       29.93F
FREMONT        CLOUDY    67  65  91 SE7       29.96F
TEKAMAH        LGT RAIN  68  64  87 SE3       29.95F
$$

NEZ050>053-065>068-078-088>093-022000-
SOUTHEAST NEBRASKA

CITY           SKY/WX    TMP DP  RH WIND       PRES   REMARKS
LINCOLN        CLOUDY    68  66  93 E7        29.97F
OMAHA EPPLEY   LGT RAIN  67  64  90 E5        29.97R FOG
FALLS CITY     LGT RAIN  70  67  90 NE3       29.95S
$$

NEZ044-045-051>053-067-022000-
OMAHA AREA

CITY           SKY/WX    TMP DP  RH WIND       PRES   REMARKS
OMAHA EPPLEY   LGT RAIN  67  64  90 E5        29.97R FOG
FREMONT        CLOUDY    67  65  91 SE7       29.96F
MILLARD        LGT RAIN  67  65  92 SE6       29.95F
OFFUTT AFB     LGT RAIN  68  64  88 E6        29.96R
$$


USA.gov is the U.S. government's official web portal to all federal, state and local government web resources and services.